Location: Miami, Florida
(25.6830°N, 80.1700°W)
Time: 09:27:08
(UTC-04:00)

ISS - Pass Details

Date: 26 June 2018
Orbit: 403 x 408 km, 51.6° (Epoch: 17 October)

Event Time Altitude Azimuth Distance (km) Brightness Sun altitude
Rises 16:16:55 0° 309° (NW) 2,337 0.5 50.6°
Reaches altitude 10° 16:19:06 10° 301° (WNW) 1,471 -0.2 50.2°
Maximum altitude 16:22:11 38° 232° (SW) 641 -1.7 49.5°
Drops below altitude 10° 16:25:15 10° 162° (SSE) 1,457 -1.1 48.8°
Enters shadow 16:43:03 -37° 143° (SE) 8,282 2.3 44.8°
Exits shadow 17:18:17 -73° 348° (NNW) 12,639 3.4 37.0°
